Location: Newark
(45.4422°N, 16.2769°E)
Time: 09:09:16
(UTC+00:00)

Vanguard 1 - Visible Passes

Search period start: 11 December 2019 00:00
Search period end: 21 December 2019 00:00
Orbit: 652 x 3832 km, 34.3° (Epoch: 10 December)

Date Brightness Start Highest point End Pass type
(mag) Time Alt. Az. Time Alt. Az. Time Alt. Az.
11 Dec 13.6 01:13:52 28° S 01:21:32 33° SE 01:38:58 10° E visible
11 Dec 13.1 03:26:40 16° SW 03:45:51 54° SSE 04:02:42 10° E visible
11 Dec 12.9 05:49:00 10° WSW 06:10:20 57° S 06:23:32 10° ESE visible
11 Dec 14.0 23:21:42 15° ESE 23:21:42 15° ESE 23:30:38 10° E visible
12 Dec 13.4 01:34:28 33° S 01:42:19 40° SSE 02:00:40 10° E visible
12 Dec 13.1 03:47:15 16° WSW 04:07:01 57° S 04:23:44 10° E visible
12 Dec 13.9 23:42:08 21° SE 23:42:08 21° SE 23:54:46 10° E visible
13 Dec 13.3 01:54:53 36° S 02:03:12 45° SSE 02:22:08 10° E visible
13 Dec 13.0 04:07:39 14° WSW 04:28:14 59° S 04:44:43 10° ESE visible
14 Dec 13.7 00:02:24 27° SE 00:02:24 27° SE 00:17:35 10° E visible
14 Dec 13.2 02:15:09 38° SSW 02:24:13 51° SSE 02:43:26 10° E visible
14 Dec 13.0 04:27:54 13° WSW 04:49:26 60° S 05:05:37 10° ESE visible
15 Dec 13.5 00:22:33 34° SE 00:22:33 34° SE 00:39:44 10° E visible
15 Dec 13.1 02:35:17 38° SW 02:45:18 55° SSE 03:04:39 10° E visible
15 Dec 13.0 04:48:02 10° W 05:10:36 59° S 05:26:27 10° ESE visible
15 Dec 14.2 22:29:52 10° E 22:29:52 10° E 22:30:02 10° E visible
16 Dec 13.3 00:42:36 40° SE 00:42:36 40° SE 01:01:31 10° E visible
16 Dec 13.0 02:55:19 37° SW 03:06:30 59° S 03:25:47 10° E visible
16 Dec 13.0 05:09:20 10° W 05:31:41 57° SSW 05:47:10 10° ESE visible
16 Dec 14.0 22:49:49 15° E 22:49:49 15° E 22:54:24 10° E visible
17 Dec 13.1 01:02:32 46° SSE 01:02:32 46° SSE 01:23:05 10° E visible
17 Dec 13.0 03:15:16 34° SW 03:27:44 61° S 03:46:50 10° ESE visible
17 Dec 13.1 05:30:47 10° W 05:52:41 53° SSW 06:07:46 10° SE visible
17 Dec 13.9 23:09:42 20° ESE 23:09:42 20° ESE 23:17:21 10° E visible
18 Dec 13.0 01:22:25 51° SSE 01:23:27 51° SSE 01:44:29 10° E visible
18 Dec 13.0 03:35:08 31° WSW 03:48:59 61° S 04:07:50 10° ESE visible
18 Dec 13.2 05:52:19 10° W 06:13:32 48° SSW 06:28:11 10° SE visible
18 Dec 13.7 23:29:31 26° ESE 23:29:31 26° ESE 23:39:37 10° E visible
19 Dec 12.9 01:42:13 54° S 01:44:30 56° SSE 02:05:48 10° E visible
19 Dec 13.0 03:54:56 27° WSW 04:10:13 60° S 04:28:43 10° ESE visible
19 Dec 13.5 23:49:17 32° ESE 23:49:17 32° ESE 00:01:30 10° E visible
20 Dec 12.9 02:01:59 56° SSW 02:05:39 59° SSE 02:27:01 10° E visible
20 Dec 13.1 04:14:42 23° WSW 04:31:23 58° SSW 04:49:30 10° ESE visible
